Home   Weather   Oklahoma City   Past weeks
Flag for USA

Past Weather in Oklahoma City, Oklahoma, USA — Yesterday and Last 2 Weeks

Now
59 °F

Sunny.


Feels Like: 60 °F
Forecast: 66 / 36 °F
Wind: 3 mph from North

Location: Will Rogers World Airport

Current Time: Mar 18, 2019 at 11:28:54 am

Latest Report: Mar 18, 2019 at 10:52 am


Visibility: 10 mi

Pressure: 30.34 "Hg

Humidity: 33%

Dew Point: 30 °F

Location of Oklahoma CityLocation

Past Weather in Oklahoma City — Graph

°F

Oklahoma City Temperature Yesterday

Maximum temperature yesterday: 66 °F (at 2:52 pm)
Minimum temperature yesterday: 32 °F (at 7:52 am)
Average temperature yesterday: 50 °F

High & Low Weather Summary for the Past Weeks

 TemperatureHumidityPressure
High70 °F (Mar 9, 1:52 pm)100% (Mar 8, 5:21 am)30.57 "Hg (Mar 8, 5:21 am)
Low9 °F (Mar 4, 6:52 am)19% (Mar 6, 1:52 pm)29.26 "Hg (Mar 13, 3:52 pm)
Average43 °F65%30.12 "Hg
* Reported Mar 3 8:05 am — Mar 18 9:52 am, Oklahoma City. Weather by CustomWeather, © 2019

Note: Actual official high and low records may vary slightly from our data, if they occured in-between our weather recording intervals... More about our weather records

Advertising

Oklahoma City Weather History for the Previous 24 Hours

Scroll right to see more
 ConditionsComfort  
Time TempWeatherWind HumidityBarometerVisibility
9:52 am
Mon, Mar 18
51 °FSunny.No wind63%30.34 "Hg10 mi
8:52 am46 °FPassing clouds.No wind68%30.32 "Hg10 mi
7:52 am41 °FPassing clouds.7 mph67%30.31 "Hg10 mi
6:52 am42 °FPassing clouds.7 mph62%30.29 "Hg10 mi
5:52 am41 °FClear.7 mph67%30.27 "Hg10 mi
4:52 am42 °FClear.3 mph57%30.26 "Hg10 mi
3:52 am44 °FClear.3 mph55%30.25 "Hg10 mi
2:52 am39 °FClear.3 mph70%30.26 "Hg10 mi
1:52 am44 °FClear.7 mph58%30.26 "Hg10 mi
12:52 am47 °FClear.5 mph52%30.26 "Hg10 mi
11:52 pm
Sun, Mar 17
47 °FClear.5 mph52%30.27 "Hg10 mi
10:52 pm48 °FClear.5 mph50%30.26 "Hg10 mi
9:52 pm50 °FClear.6 mph46%30.25 "Hg10 mi
8:52 pm52 °FPassing clouds.7 mph43%30.24 "Hg10 mi
7:52 pm54 °FPassing clouds.7 mph40%30.24 "Hg10 mi
6:52 pm63 °FSunny.10 mph27%30.22 "Hg10 mi
5:52 pm65 °FSunny.9 mph26%30.22 "Hg10 mi
4:52 pm65 °FSunny.7 mph25%30.22 "Hg10 mi
3:52 pm66 °FSunny.9 mph25%30.23 "Hg10 mi
2:52 pm66 °FSunny.6 mph25%30.25 "Hg10 mi
1:52 pm63 °FSunny.8 mph27%30.29 "Hg10 mi
12:52 pm62 °FSunny.9 mph29%30.32 "Hg10 mi
11:52 am59 °FSunny.10 mph31%30.34 "Hg10 mi
Weather by CustomWeather, © 2019

See weather overview